sat.trackr.live / text

‹ back to catalog

STARLINK-32263

NORAD 60371 · 2024-138S

PAYLOAD ACTIVE UNKNOWN

§ Identity

Operator
Country
US
Launch date
2024-08-04
Launch site
AFWTR
Launch vehicle
Mass (kg)
RCS (m²)

Purposes: comms

External: N2YO · Heavens-Above · Gunter

§ Orbital elements

Epoch: 2026-05-24T15:54:00.156384Z

Period
94.10 min
Inclination
53.1614°
Eccentricity
0.0000515
Mean motion
15.30225069 rev/d
Perigee alt
474.8 km
Apogee alt
475.5 km
Semi-major
6,853.3 km
B*
-1.6444e-4
RAAN
316.4163°
Arg perigee
97.9314°
Mean anomaly
262.1745°
Rev number
10,216

§ Raw data

STARLINK-322631 60371U 24138S   26144.66250181 -.00005229  00000+0 -16444-3 0  99922 60371  53.1614 316.4163 0000515  97.9314 262.1745 15.30225069102167

JSON: /api/v1/satellites/60371 · /tle

For live sub-satellite position, see the globe view (requires WebGL).

§ Visibility from observer

Set your observer location to see the next 7 days of passes ≥ 10°. The values pass through the URL so the page stays shareable.

No JS? Fill the form by hand. The geolocation button needs JavaScript.